sat.trackr.live / text

‹ back to catalog

GAOFEN-5 01

NORAD 43461 · 2018-043A

PAYLOAD ACTIVE UNKNOWN

§ Identity

Operator
Country
PRC
Launch date
2018-05-08
Launch site
TAISC
Launch vehicle
Mass (kg)
RCS (m²)

Purposes: earth_obs

External: N2YO · Heavens-Above · Gunter

§ Orbital elements

Epoch: 2026-09-20T05:07:25.879008Z

Period
98.59 min
Inclination
98.4697°
Eccentricity
0.0002630
Mean motion
14.60659395 rev/d
Perigee alt
689.2 km
Apogee alt
692.9 km
Semi-major
7,069.2 km
B*
5.2051e-5
RAAN
236.8549°
Arg perigee
121.3663°
Mean anomaly
238.7795°
Rev number
44,556

§ Raw data

GAOFEN-5 011 43461U 18043A   26263.21349397  .00000204  00000+0  52051-4 0  99932 43461  98.4697 236.8549 0002630 121.3663 238.7795 14.60659395445566

JSON: /api/v1/satellites/43461 · /tle

For live sub-satellite position, see the globe view (requires WebGL).

§ Visibility from observer

Set your observer location to see the next 7 days of passes ≥ 10°. The values pass through the URL so the page stays shareable.

No JS? Fill the form by hand. The geolocation button needs JavaScript.